Weather History for KPPQ - August, 2014

Change the Weather History Date:

Sunday, August 24, 2014

  Actual Average (KUIN) Record (KUIN)
Temperature  
Mean Temperature 82 °F 74 °F  
Max Temperature 94 °F 84 °F 109 °F (1936)
Min Temperature 71 °F 64 °F 46 °F (1942)
Degree Days  
Heating Degree Days 0 0  
Month to date heating degree days 0  
Since 1 June heating degree days 16  
Since 1 July heating degree days 0  
Cooling Degree Days 17 9  
Month to date cooling degree days 240  
Year to date cooling degree days 896  
Since 1 June cooling degree days 810  
Growing Degree Days 32 (Base 50)    
Moisture  
Dew Point 74 °F    
Average Humidity 75    
Maximum Humidity 92    
Minimum Humidity 47    
Precipitation  
Precipitation 0.00 in 0.12 in 1.13 in (2007)
Month to date precipitation 2.82  
Year to date precipitation 24.94  
Sea Level Pressure  
Sea Level Pressure 29.95 in    
Wind  
Wind Speed 2 mph (SSE)    
Max Wind Speed 6 mph    
Max Gust Speed -    
Visibility 9 miles    
Events      
T = Trace of Precipitation, MM = Missing Value Source: NWS Daily Summary

Daily Weather History Graph

Daily Weather History Graph

Search for Another Location

Airport or City:

Trip Planner

Search our weather history database for the weather conditions in past years. The results will help you decide how hot, cold, wet, or windy it might be!

Date:

Astronomy

Aug. 24, 2014 Rise Set
Actual Time 6:23 AM CDT 7:46 PM CDT
Civil Twilight 5:55 AM CDT 8:14 PM CDT
Nautical Twilight 5:21 AM CDT 8:48 PM CDT
Astronomical Twilight 4:46 AM CDT 9:23 PM CDT
Moon 5:34 AM CDT (8/24) 7:04 PM CDT (8/24)
Length of Visible Light 14h 18m
Length of Day
13h 22m
Waning Crescent, 1% of the Moon is Illuminated
Aug 24
Waning Crescent
Aug 25
New
Sep 2
First Quarter
Sep 8
Full
Sep 15
Last Quarter

Hourly Weather History & Observations

Time (CDT) Temp. Heat Index Dew Point Humidity Pressure Visibility Wind Dir Wind Speed Gust Speed Precip Events Conditions
12:15 AM 77.4 °F - 74.7 °F 91% 29.93 in 2.5 mi Calm Calm - N/A   Clear
12:35 AM 76.3 °F - 73.6 °F 91% 29.93 in 7.0 mi East 3.5 mph - N/A   Clear
12:55 AM 76.6 °F - 73.9 °F 91% 29.93 in 10.0 mi Calm Calm - N/A   Clear
1:15 AM 76.6 °F - 73.6 °F 90% 29.93 in 7.0 mi SE 4.6 mph - N/A   Clear
1:35 AM 76.5 °F - 73.6 °F 91% 29.93 in 7.0 mi Calm Calm - N/A   Clear
1:55 AM 76.3 °F - 73.6 °F 91% 29.93 in 7.0 mi ESE 4.6 mph - N/A   Clear
2:15 AM 76.5 °F - 73.8 °F 91% 29.93 in 7.0 mi Calm Calm - N/A   Clear
2:35 AM 76.1 °F - 73.6 °F 92% 29.93 in 5.0 mi Calm Calm - N/A   Clear
2:55 AM 75.6 °F - 73.0 °F 92% 29.93 in 5.0 mi SE 3.5 mph - N/A   Clear
3:15 AM 75.2 °F - 72.7 °F 92% 29.93 in 7.0 mi ESE 4.6 mph - N/A   Clear
3:35 AM 74.8 °F - 72.3 °F 92% 29.93 in 7.0 mi ESE 4.6 mph - N/A   Clear
3:55 AM 74.3 °F - 71.8 °F 92% 29.93 in 7.0 mi SE 3.5 mph - N/A   Clear
4:15 AM 73.8 °F - 71.1 °F 91% 29.93 in 7.0 mi East 3.5 mph - N/A   Clear
4:35 AM 73.4 °F - 70.9 °F 92% 29.93 in 7.0 mi East 3.5 mph - N/A   Clear
4:55 AM 73.0 °F - 70.7 °F 92% 29.93 in 7.0 mi Calm Calm - N/A   Clear
5:15 AM 73.0 °F - 70.3 °F 91% 29.94 in 7.0 mi Calm Calm - N/A   Clear
5:35 AM 72.5 °F - 70.0 °F 92% 29.94 in 7.0 mi Calm Calm - N/A   Clear
6:15 AM 71.8 °F - 69.4 °F 92% 29.96 in 7.0 mi Calm Calm - N/A   Clear
6:35 AM 71.6 °F - 69.3 °F 92% 29.96 in 4.0 mi Calm Calm - N/A   Clear
6:55 AM 71.6 °F - 69.3 °F 92% 29.96 in 3.0 mi Calm Calm - N/A   Clear
7:15 AM 72.5 °F - 70.2 °F 92% 29.97 in 4.0 mi Calm Calm - N/A   Clear
7:35 AM 73.4 °F - 71.1 °F 92% 29.97 in 5.0 mi Calm Calm - N/A   Clear
7:55 AM 74.3 °F - 71.8 °F 92% 29.97 in 7.0 mi Calm Calm - N/A   Clear
8:15 AM 76.3 °F - 73.4 °F 91% 29.97 in 7.0 mi Calm Calm - N/A   Clear
8:35 AM 77.7 °F - 73.8 °F 88% 29.97 in 7.0 mi Calm Calm - N/A   Clear
8:55 AM 79.9 °F - 75.0 °F 85% 29.97 in 10.0 mi Calm Calm - N/A   Clear
9:15 AM 81.5 °F 88.0 °F 75.4 °F 82% 29.97 in 10.0 mi Calm Calm - N/A   Clear
9:35 AM 83.8 °F 91.8 °F 75.2 °F 75% 29.97 in 10.0 mi WSW 3.5 mph - N/A   Clear
9:55 AM 85.5 °F 94.2 °F 75.0 °F 71% 29.98 in 10.0 mi WSW 4.6 mph - N/A   Clear
10:15 AM 87.1 °F 95.9 °F 74.3 °F 66% 29.98 in 10.0 mi West 4.6 mph - N/A   Clear
10:35 AM 88.0 °F 97.0 °F 74.5 °F 64% 29.98 in 10.0 mi WSW 3.5 mph - N/A   Clear
10:55 AM 88.9 °F 96.1 °F 72.1 °F 58% 29.98 in 10.0 mi WNW 3.5 mph - N/A   Clear
11:15 AM 89.8 °F 98.1 °F 73.2 °F 58% 29.98 in 10.0 mi WNW 4.6 mph - N/A   Clear
11:35 AM 90.0 °F 96.9 °F 72.0 °F 55% 29.99 in 10.0 mi WSW 4.6 mph - N/A   Clear
11:55 AM 90.5 °F 98.1 °F 72.5 °F 55% 29.99 in 10.0 mi WSW 4.6 mph - N/A   Clear
12:15 PM 91.4 °F 99.5 °F 72.9 °F 54% 29.98 in 10.0 mi WNW 4.6 mph - N/A   Clear
12:35 PM 91.9 °F 99.0 °F 71.6 °F 51% 29.98 in 10.0 mi Calm Calm - N/A   Clear
12:55 PM 91.9 °F 100.1 °F 72.3 °F 53% 29.98 in 10.0 mi Calm Calm - N/A   Clear
1:15 PM 91.8 °F 98.6 °F 71.4 °F 51% 29.97 in 10.0 mi Calm Calm - N/A   Clear
1:35 PM 92.8 °F 98.6 °F 69.6 °F 47% 29.97 in 10.0 mi Calm Calm - N/A   Clear
1:55 PM 93.4 °F 100.9 °F 71.6 °F 49% 29.97 in 10.0 mi Calm Calm - N/A   Clear
2:15 PM 93.7 °F 102.3 °F 72.3 °F 50% 29.96 in 10.0 mi SE 4.6 mph - N/A   Clear
2:35 PM 93.7 °F 102.9 °F 72.9 °F 51% 29.96 in 10.0 mi East 3.5 mph - N/A   Clear
2:55 PM 93.9 °F 104.7 °F 74.5 °F 53% 29.96 in 10.0 mi Calm Calm - N/A   Clear
3:15 PM 93.7 °F 102.9 °F 73.0 °F 51% 29.95 in 10.0 mi SSE 5.8 mph - N/A   Clear
3:35 PM 93.7 °F 102.3 °F 72.7 °F 50% 29.95 in 10.0 mi Calm Calm - N/A   Clear
3:55 PM 93.7 °F 102.9 °F 73.2 °F 51% 29.94 in 10.0 mi SE 5.8 mph - N/A   Clear
4:15 PM 93.6 °F 101.3 °F 72.0 °F 49% 29.94 in 10.0 mi SSE 5.8 mph - N/A   Clear
4:35 PM 93.6 °F 101.3 °F 71.6 °F 49% 29.94 in 10.0 mi SSE 3.5 mph - N/A   Clear
4:55 PM 93.2 °F 102.4 °F 73.4 °F 52% 29.94 in 10.0 mi SE 3.5 mph - N/A   Clear
5:15 PM 92.7 °F 102.4 °F 73.6 °F 54% 29.94 in 10.0 mi South 3.5 mph - N/A   Clear
5:35 PM 92.5 °F 101.3 °F 73.2 °F 53% 29.94 in 10.0 mi South 3.5 mph - N/A   Clear
5:55 PM 92.1 °F 103.0 °F 74.8 °F 57% 29.93 in 10.0 mi SSE 3.5 mph - N/A   Clear
6:15 PM 91.4 °F 103.1 °F 75.6 °F 60% 29.93 in 10.0 mi Calm Calm - N/A   Clear
6:35 PM 90.5 °F 104.0 °F 77.2 °F 65% 29.93 in 10.0 mi Calm Calm - N/A   Clear
6:55 PM 89.4 °F 102.3 °F 77.0 °F 67% 29.93 in 10.0 mi Calm Calm - N/A   Clear
7:15 PM 87.3 °F 99.3 °F 77.2 °F 72% 29.93 in 10.0 mi SE 4.6 mph - N/A   Clear
7:35 PM 84.9 °F 94.5 °F 76.1 °F 75% 29.93 in 10.0 mi SE 5.8 mph - N/A   Clear
7:55 PM 83.3 °F 91.4 °F 75.9 °F 78% 29.94 in 10.0 mi Calm Calm - N/A   Clear
8:15 PM 81.1 °F 87.8 °F 76.1 °F 85% 29.94 in 10.0 mi Calm Calm - N/A   Clear
8:35 PM 81.5 °F 88.5 °F 76.3 °F 84% 29.94 in 10.0 mi SE 3.5 mph - N/A   Clear
8:55 PM 82.4 °F 90.9 °F 77.0 °F 84% 29.95 in 10.0 mi SE 3.5 mph - N/A   Clear
9:15 PM 81.3 °F 88.0 °F 75.9 °F 84% 29.96 in 10.0 mi SE 4.6 mph - N/A   Clear
9:35 PM 80.2 °F 85.7 °F 75.6 °F 86% 29.96 in 10.0 mi SE 4.6 mph - N/A   Clear
9:55 PM 80.2 °F 85.5 °F 75.4 °F 85% 29.96 in 10.0 mi SE 4.6 mph - N/A   Clear
10:15 PM 80.6 °F 86.4 °F 75.7 °F 85% 29.96 in 10.0 mi SE 4.6 mph - N/A   Clear
10:35 PM 80.2 °F 85.8 °F 76.1 °F 87% 29.97 in 10.0 mi SSE 4.6 mph - N/A   Clear
10:55 PM 80.6 °F 87.1 °F 77.0 °F 89% 29.97 in 10.0 mi SSE 4.6 mph - N/A   Clear
11:15 PM 80.2 °F 86.0 °F 76.3 °F 88% 29.98 in 10.0 mi SSE 4.6 mph - N/A   Clear
11:35 PM 80.2 °F 86.0 °F 76.5 °F 88% 29.98 in 10.0 mi SE 4.6 mph - N/A   Clear
11:55 PM 80.1 °F 85.7 °F 76.5 °F 89% 29.98 in 7.0 mi SSE 4.6 mph - N/A   Clear